This is the latest recevied weather packets stored in our database for station/object SP9MUF-14. If no packets are shown the sender has not sent any weather packets the latest 10 day(s).
| Time | Temp. | Humidity | Pressure | Rain* | Wind** | Luminosity | Snow |
|---|---|---|---|---|---|---|---|
| 1787306180 | 22.78° C | 82% | 1010.6 hPa | 0 mm | - | 365 W/m² | - |
| 1787305878 | 22.78° C | 83% | 1010.7 hPa | 0 mm | - | 466 W/m² | - |
| 1787305576 | 21.67° C | 84% | 1010.9 hPa | 0 mm | - | 160 W/m² | - |
| 1787304971 | 22.78° C | 83% | 1010.8 hPa | 0 mm | - | 195 W/m² | - |
| 1787304669 | 21.67° C | 84% | 1010.7 hPa | 0 mm | - | 195 W/m² | - |
| 1787304366 | 21.67° C | 85% | 1010.8 hPa | 0 mm | - | 184 W/m² | - |
| 1787304064 | 21.67° C | 85% | 1010.9 hPa | 0 mm | - | 203 W/m² | - |
| 1787303762 | 21.67° C | 84% | 1010.8 hPa | 0 mm | - | 168 W/m² | - |
| 1787303460 | 21.67° C | 83% | 1010.8 hPa | 0 mm | - | 169 W/m² | - |
| 1787303157 | 21.67° C | 85% | 1010.8 hPa | 0 mm | - | 166 W/m² | - |
| 1787302855 | 21.67° C | 85% | 1011 hPa | 0 mm | - | 153 W/m² | - |
| 1787302553 | 21.67° C | 86% | 1010.9 hPa | 0 mm | - | 156 W/m² | - |
| 1787302251 | 21.67° C | 85% | 1011 hPa | 0 mm | - | 175 W/m² | - |
| 1787301948 | 21.67° C | 86% | 1010.9 hPa | 0 mm | - | 160 W/m² | - |
| 1787301646 | 21.67° C | 85% | 1010.7 hPa | 0 mm | - | 168 W/m² | - |
| 1787301344 | 21.67° C | 87% | 1010.7 hPa | 0 mm | - | 245 W/m² | - |
| 1787301042 | 21.67° C | 87% | 1010.5 hPa | 0 mm | - | 238 W/m² | - |
| 1787300739 | 21.67° C | 87% | 1010.5 hPa | 0 mm | - | 144 W/m² | - |
| 1787300437 | 20.56° C | 86% | 1010.5 hPa | 0 mm | - | 175 W/m² | - |
| 1787300134 | 21.67° C | 85% | 1010.4 hPa | 0 mm | - | 164 W/m² | - |
| 1787299832 | 21.67° C | 87% | 1010.4 hPa | 0 mm | - | 271 W/m² | - |
| 1787299228 | 20.56° C | 89% | 1010.4 hPa | 0 mm | - | 366 W/m² | - |
| 1787298925 | 20.56° C | 91% | 1010.6 hPa | 0 mm | - | 340 W/m² | - |
| 1787298018 | 20° C | 93% | 1010.8 hPa | 0 mm | - | 88 W/m² | - |
| 1787297716 | 20° C | 92% | 1010.9 hPa | 0 mm | - | 87 W/m² | - |
* Rain latest hour (hover to see other rain measurements)
** Current wind speed in m/s (hover to see current wind gust speed)